STARLINK-32555, 61918

Orbit data source: Space-Track

STARLINK-32555, 61918 is a payload satellite owned by SpaceX/Seattle (US) in LEO that was launched on Mon, 11 Nov 2024 UTC via an FALCON 9 launch vehicle from the Air Force Eastern Test Range (AFETR). Payload-class satellites include a variety of spacecraft equipped with specific instruments for various scientific and technological missions. These include communications satellites like Starlink; space stations such as the ISS; scientific satellites like the Hubble; Earth observation satellites from companies like Planet Labs, Umbra, and HawkEye 360; GPS; miniature CubeSats for education and research; and military/defense satellites.

Loading next visibility...
Identifier
61918, 2024-207G
Orbit
LEO
Last TLE update
10 hours ago
Origin
Manufacturer
SpaceX/Seattle
Mission
Operational Commercial Communications
Bus & Motor
STARLINK V2M, Unknown motor
Mass
730 kg wet, ~700 kg dry
Launch date (UTC)
2024-11-11 (8 months ago)
Launch vehicle
FALCON 9
Launch site
Air Force Eastern Test Range (AFETR)
Object type
Payload
Rocket body
Debris
Shape & HBR
Box + 2 Pan, 29 m
Radar Cross Section
36.964 m², Large (>1 m²)

Expand to show TLE details & history

TLE from 10 hours ago
0 STARLINK-32555
1 61918U 24207G   25186.44026811  .00015632  00000-0  57620-3 0  9998
2 61918  42.9956 241.9495 0001397 276.0389  84.0304 15.27589294 36865
Epoch: 2025-07-05T10:33Z
TLE epoch observation values (Epoch: 2025-07-05T10:33:59.164Z)
Latitude
0.00002°
Longitude
159.77472°
Altitude
482.697 km
Speed
7.626 km/s
True Right ascension
16h 07m 47s
True Declination
0° 00' 00"
Sunlit
Object was in full shadow at epoch
Visualization orbit readout
Latitude
42.87201°
Longitude
-120.56253°
Altitude
486.998 km
Speed
7.627 km/s
Apparent Right ascension
20h 52m 05s
Apparent Declination
3° 21' 55"
Sunlit
Object is in daylight
Visualization observer readout
Local Sidereal Time
08:16:44
Azimuth
347.255° N
Elevation
-45.964°
Doppler factor
1
Orbital elements
Apogee altitude
485.926 km
Perigee altitude
484.008 km
Semi-major axis
6,863.104 km
Eccentricity
0.00014
Inclination
42.9956°
RAAN
241.9495°
Arg. of periapsis
276.0389°
True anomaly
Unknown
Mean anomaly
84.0304°
Eccentric anomaly
Unknown
Mean motion
3.81735 °/min
Orbital period
94.31 mins
BSTAR
0.0005762
Loading maneuver chart data...
Loading SW <> Apogee altitude chart data...
Loading historical data...
Loading historical data...
Loading historical data...
Loading historical data...
Loading historical data...
Loading historical data...
Loading historical data...

STARLINK-32555 Visibility forecast

Observer location: undefined°, undefined°

Span
Click to sort rows by Start time (UTC) header in descending order
Start Az.
Max El. time (UTC)
Max El. Az.
Max El.
End time (UTC)
End Az.
6 mins2025-07-06 07:10:53.790Z224.892° SW2025-07-06 07:13:53.790Z155.474° SSE36.327°2025-07-06 07:16:53.790Z81.804° E
5 mins2025-07-06 08:50:53.790Z277.056° WNW2025-07-06 08:52:53.790Z352.888° N41.023°2025-07-06 08:55:53.790Z69.092° E
5 mins2025-07-06 10:29:53.790Z295.486° NW2025-07-06 10:31:53.790Z353.179° N39.72°2025-07-06 10:34:53.790Z84.586° E
5 mins2025-07-06 12:08:53.790Z275.933° WNW2025-07-06 12:10:53.790Z217.85° SW39.249°2025-07-06 12:13:53.790Z130.224° SE
|